STARLINK-34282

Last updated on Thu Jul 03 2025 00:02:07 GMT+0000 (Coordinated Universal Time)

1 64454U 25130S 25183.58335648 -.00315308 00000+0 -22162-2 0 9991 2 64454 53.1564 179.7446 0000777 78.3401 55.8212 15.74333208 3351
UTC large
Height (km)
Speed (km/s)
/
Latitude / Longitude
Inclination (degrees)
Orbital Period (minutes)
Azimuth
Elevation
Range (km)
Doppler Factor

Next 0 passes for location: London (51.5072 / 0.1276)

Sorry there are no passes over London.